Location: Cork
(51.8990°N, 8.4960°W)
Time: 10:29:39
(UTC+01:00)

Iridium 66 - Visible Passes

Search period start: 26 April 2018 00:00
Search period end: 06 May 2018 00:00
Orbit: 776 x 779 km, 86.4° (Epoch: 25 April)

Date Brightness Start Highest point End Pass type
(mag) Time Alt. Az. Time Alt. Az. Time Alt. Az.
26 Apr 8.7 03:27:55 10° NNE 03:31:14 17° ENE 03:34:31 10° ESE visible
26 Apr 6.0 05:07:28 10° N 05:12:44 88° W 05:17:57 10° S visible
27 Apr 9.1 02:56:38 10° NE 02:57:10 10° ENE 02:57:42 10° ENE visible
27 Apr 6.7 04:33:59 10° N 04:39:09 57° E 04:44:17 10° SSE visible
28 Apr 7.6 04:00:39 10° N 04:05:26 35° ENE 04:10:11 10° SE visible
29 Apr 8.3 03:27:34 10° NNE 03:31:36 22° ENE 03:35:36 10° ESE visible
29 Apr 6.1 05:07:38 10° N 05:12:50 65° W 05:17:59 10° S visible
30 Apr 8.7 02:54:58 10° NNE 02:57:37 14° ENE 03:00:15 10° E visible
30 Apr 6.2 04:34:03 10° N 04:39:19 77° E 04:44:32 10° S visible
01 May 7.0 04:00:37 10° N 04:05:41 46° E 04:10:42 10° SSE visible
02 May 7.8 03:27:22 10° NNE 03:31:55 29° ENE 03:36:25 10° SE visible
02 May 6.4 05:07:52 10° NNW 05:12:52 48° W 05:17:52 10° SSW visible
03 May 8.5 02:54:26 10° NNE 02:58:01 18° ENE 03:01:36 10° ESE visible
03 May 6.0 04:34:11 10° N 04:39:26 79° W 04:44:39 10° S visible
04 May 8.8 02:22:20 10° NE 02:24:00 11° ENE 02:25:39 10° E visible
04 May 6.5 04:00:40 10° N 04:05:52 63° E 04:11:03 10° SSE visible
05 May 7.3 03:27:18 10° N 03:32:11 38° ENE 03:37:03 10° SE visible
05 May 6.8 05:08:10 10° NNW 05:12:53 35° W 05:17:35 10° SSW visible
